Year,Month,Day,Hour,Minute,Value (Times are PST for barometer in hPa)
2017,02,16,00,00,981.34
2017,02,16,00,01,981.43
2017,02,16,00,02,981.41
2017,02,16,00,03,981.38
2017,02,16,00,04,981.24
2017,02,16,00,05,981.34
2017,02,16,00,06,981.47
2017,02,16,00,07,981.26
2017,02,16,00,08,981.08
2017,02,16,00,09,981.31
2017,02,16,00,10,981.37
2017,02,16,00,11,981.18
2017,02,16,00,12,981.40
2017,02,16,00,13,981.15
2017,02,16,00,14,981.38
2017,02,16,00,15,981.35
2017,02,16,00,16,981.65
2017,02,16,00,17,981.55
2017,02,16,00,18,981.49
2017,02,16,00,19,981.77
2017,02,16,00,20,981.44
2017,02,16,00,21,981.35
2017,02,16,00,22,981.51
2017,02,16,00,23,981.38
2017,02,16,00,24,981.34
2017,02,16,00,25,981.41
2017,02,16,00,26,981.34
2017,02,16,00,27,981.25
2017,02,16,00,28,981.44
2017,02,16,00,29,981.51
2017,02,16,00,30,981.42
2017,02,16,00,31,981.64
2017,02,16,00,32,981.44
2017,02,16,00,33,981.41
2017,02,16,00,34,981.55
2017,02,16,00,35,981.48
2017,02,16,00,36,981.61
2017,02,16,00,37,981.74
2017,02,16,00,38,981.61
2017,02,16,00,39,981.51
2017,02,16,00,40,981.58
2017,02,16,00,41,981.59
2017,02,16,00,42,981.78
2017,02,16,00,43,981.68
2017,02,16,00,44,981.78
2017,02,16,00,45,981.65
2017,02,16,00,46,981.65
2017,02,16,00,47,981.68
2017,02,16,00,48,981.65
2017,02,16,00,49,981.71
2017,02,16,00,50,981.65
2017,02,16,00,51,981.75
2017,02,16,00,52,981.76
2017,02,16,00,53,982.04
2017,02,16,00,54,981.75
2017,02,16,00,55,981.85
2017,02,16,00,56,981.82
2017,02,16,00,57,981.78
2017,02,16,00,58,981.72
2017,02,16,00,59,981.85
2017,02,16,01,00,981.85
2017,02,16,01,01,981.75
2017,02,16,01,02,981.83
2017,02,16,01,03,981.98
2017,02,16,01,04,981.68
2017,02,16,01,05,981.61
2017,02,16,01,06,981.71
2017,02,16,01,07,981.74
2017,02,16,01,08,981.58
2017,02,16,01,09,981.51
2017,02,16,01,10,981.58
2017,02,16,01,11,981.55
2017,02,16,01,12,981.65
2017,02,16,01,13,981.61
2017,02,16,01,14,981.61
2017,02,16,01,15,981.51
2017,02,16,01,16,981.55
2017,02,16,01,17,981.45
2017,02,16,01,18,981.71
2017,02,16,01,19,981.58
2017,02,16,01,20,981.51
2017,02,16,01,21,981.61
2017,02,16,01,22,981.51
2017,02,16,01,23,981.58
2017,02,16,01,24,981.61
2017,02,16,01,25,981.58
2017,02,16,01,26,981.55
2017,02,16,01,27,981.61
2017,02,16,01,28,981.61
2017,02,16,01,29,981.70
2017,02,16,01,30,981.55
2017,02,16,01,31,981.71
2017,02,16,01,32,981.71
2017,02,16,01,33,981.61
2017,02,16,01,34,981.68
2017,02,16,01,35,981.67
2017,02,16,01,36,981.55
2017,02,16,01,37,981.44
2017,02,16,01,38,981.55
2017,02,16,01,39,981.49
2017,02,16,01,40,981.64
2017,02,16,01,41,981.41
2017,02,16,01,42,981.48
2017,02,16,01,43,981.55
2017,02,16,01,44,981.65
2017,02,16,01,45,981.58
2017,02,16,01,46,981.65
2017,02,16,01,47,981.61
2017,02,16,01,48,981.65
2017,02,16,01,49,981.51
2017,02,16,01,50,981.51
2017,02,16,01,51,981.41
2017,02,16,01,52,981.51
2017,02,16,01,53,981.48
2017,02,16,01,54,981.58
2017,02,16,01,55,981.51
2017,02,16,01,56,981.41
2017,02,16,01,57,981.45
2017,02,16,01,58,981.58
2017,02,16,01,59,981.68
2017,02,16,02,00,981.65
2017,02,16,02,01,981.52
2017,02,16,02,02,981.67
2017,02,16,02,03,981.55
2017,02,16,02,04,981.60
2017,02,16,02,05,981.35
2017,02,16,02,06,981.51
2017,02,16,02,07,981.55
2017,02,16,02,08,981.48
2017,02,16,02,09,981.48
2017,02,16,02,10,981.55
2017,02,16,02,11,981.61
2017,02,16,02,12,981.58
2017,02,16,02,13,981.65
2017,02,16,02,14,981.61
2017,02,16,02,15,981.58
2017,02,16,02,16,981.59
2017,02,16,02,17,981.75
2017,02,16,02,18,981.75
2017,02,16,02,19,981.78
2017,02,16,02,20,981.78
2017,02,16,02,21,981.85
2017,02,16,02,22,981.92
2017,02,16,02,23,981.82
2017,02,16,02,24,981.88
2017,02,16,02,25,981.88
2017,02,16,02,26,981.85
2017,02,16,02,27,981.95
2017,02,16,02,28,982.02
2017,02,16,02,29,982.09
2017,02,16,02,30,982.05
2017,02,16,02,31,982.19
2017,02,16,02,32,982.15
2017,02,16,02,33,982.15
2017,02,16,02,34,982.22
2017,02,16,02,35,982.18
2017,02,16,02,36,982.05
2017,02,16,02,37,982.16
2017,02,16,02,38,982.30
2017,02,16,02,39,982.55
2017,02,16,02,40,982.26
2017,02,16,02,41,982.36
2017,02,16,02,42,982.49
2017,02,16,02,43,982.46
2017,02,16,02,44,982.43
2017,02,16,02,45,982.39
2017,02,16,02,46,982.46
2017,02,16,02,47,982.53
2017,02,16,02,48,982.49
2017,02,16,02,49,982.46
2017,02,16,02,50,982.53
2017,02,16,02,51,982.56
2017,02,16,02,52,982.56
2017,02,16,02,53,982.59
2017,02,16,02,54,982.66
2017,02,16,02,55,982.66
2017,02,16,02,56,982.70
2017,02,16,02,57,982.70
2017,02,16,02,58,982.80
2017,02,16,02,59,982.76
2017,02,16,03,00,982.83
2017,02,16,03,01,982.73
2017,02,16,03,02,982.76
2017,02,16,03,03,982.70
2017,02,16,03,04,982.80
2017,02,16,03,05,982.80
2017,02,16,03,06,982.87
2017,02,16,03,07,982.83
2017,02,16,03,08,982.83
2017,02,16,03,09,982.87
2017,02,16,03,10,982.83
2017,02,16,03,11,982.93
2017,02,16,03,12,982.90
2017,02,16,03,13,982.90
2017,02,16,03,14,982.97
2017,02,16,03,15,982.93
2017,02,16,03,16,982.93
2017,02,16,03,17,982.93
2017,02,16,03,18,982.97
2017,02,16,03,19,982.93
2017,02,16,03,20,982.90
2017,02,16,03,21,983.00
2017,02,16,03,22,983.00
2017,02,16,03,23,982.97
2017,02,16,03,24,983.01
2017,02,16,03,25,983.14
2017,02,16,03,26,983.20
2017,02,16,03,27,983.17
2017,02,16,03,28,983.20
2017,02,16,03,29,983.24
2017,02,16,03,30,983.20
2017,02,16,03,31,983.17
2017,02,16,03,32,983.24
2017,02,16,03,33,983.17
2017,02,16,03,34,983.20
2017,02,16,03,35,983.24
2017,02,16,03,36,983.31
2017,02,16,03,37,983.24
2017,02,16,03,38,983.27
2017,02,16,03,39,983.34
2017,02,16,03,40,983.34
2017,02,16,03,41,983.24
2017,02,16,03,42,983.31
2017,02,16,03,43,983.34
2017,02,16,03,44,983.37
2017,02,16,03,45,983.41
2017,02,16,03,46,983.44
2017,02,16,03,47,983.44
2017,02,16,03,48,983.51
2017,02,16,03,49,983.52
2017,02,16,03,50,983.64
2017,02,16,03,51,983.51
2017,02,16,03,52,983.54
2017,02,16,03,53,983.58
2017,02,16,03,54,983.61
2017,02,16,03,55,983.64
2017,02,16,03,56,983.61
2017,02,16,03,57,983.68
2017,02,16,03,58,983.64
2017,02,16,03,59,983.64
2017,02,16,04,00,983.64
2017,02,16,04,01,983.68
2017,02,16,04,02,983.68
2017,02,16,04,03,983.64
2017,02,16,04,04,983.75
2017,02,16,04,05,983.71
2017,02,16,04,06,983.71
2017,02,16,04,07,983.75
2017,02,16,04,08,983.85
2017,02,16,04,09,983.81
2017,02,16,04,10,983.85
2017,02,16,04,11,983.81
2017,02,16,04,12,983.78
2017,02,16,04,13,983.78
2017,02,16,04,14,983.92
2017,02,16,04,15,983.81
2017,02,16,04,16,983.81
2017,02,16,04,17,983.78
2017,02,16,04,18,983.78
2017,02,16,04,19,983.81
2017,02,16,04,20,983.78
2017,02,16,04,21,983.85
2017,02,16,04,22,983.88
2017,02,16,04,23,983.92
2017,02,16,04,24,983.85
2017,02,16,04,25,983.92
2017,02,16,04,26,984.05
2017,02,16,04,27,984.08
2017,02,16,04,28,984.05
2017,02,16,04,29,984.05
2017,02,16,04,30,984.08
2017,02,16,04,31,984.08
2017,02,16,04,32,984.05
2017,02,16,04,33,984.12
2017,02,16,04,34,984.06
2017,02,16,04,35,984.25
2017,02,16,04,36,984.19
2017,02,16,04,37,984.22
2017,02,16,04,38,984.19
2017,02,16,04,39,984.15
2017,02,16,04,40,984.22
2017,02,16,04,41,984.25
2017,02,16,04,42,984.29
2017,02,16,04,43,984.36
2017,02,16,04,44,984.36
2017,02,16,04,45,984.39
2017,02,16,04,46,984.42
2017,02,16,04,47,984.49
2017,02,16,04,48,984.42
2017,02,16,04,49,984.46
2017,02,16,04,50,984.42
2017,02,16,04,51,984.49
2017,02,16,04,52,984.46
2017,02,16,04,53,984.46
2017,02,16,04,54,984.49
2017,02,16,04,55,984.46
2017,02,16,04,56,984.49
2017,02,16,04,57,984.42
2017,02,16,04,58,984.46
2017,02,16,04,59,984.53
2017,02,16,05,00,984.49
2017,02,16,05,01,984.49
2017,02,16,05,02,984.49
2017,02,16,05,03,984.59
2017,02,16,05,04,984.68
2017,02,16,05,05,984.46
2017,02,16,05,06,984.63
2017,02,16,05,07,984.69
2017,02,16,05,08,984.66
2017,02,16,05,09,984.66
2017,02,16,05,10,984.66
2017,02,16,05,11,984.67
2017,02,16,05,12,984.83
2017,02,16,05,13,984.90
2017,02,16,05,14,984.93
2017,02,16,05,15,985.07
2017,02,16,05,16,984.97
2017,02,16,05,17,985.07
2017,02,16,05,18,985.07
2017,02,16,05,19,985.07
2017,02,16,05,20,985.17
2017,02,16,05,21,985.17
2017,02,16,05,22,985.24
2017,02,16,05,23,985.17
2017,02,16,05,24,985.27
2017,02,16,05,25,985.27
2017,02,16,05,26,985.24
2017,02,16,05,27,985.20
2017,02,16,05,28,985.30
2017,02,16,05,29,985.20
2017,02,16,05,30,985.27
2017,02,16,05,31,985.17
2017,02,16,05,32,985.37
2017,02,16,05,33,985.34
2017,02,16,05,34,985.44
2017,02,16,05,35,985.34
2017,02,16,05,36,985.30
2017,02,16,05,37,985.41
2017,02,16,05,38,985.51
2017,02,16,05,39,985.44
2017,02,16,05,40,985.51
2017,02,16,05,41,985.64
2017,02,16,05,42,985.68
2017,02,16,05,43,985.64
2017,02,16,05,44,985.71
2017,02,16,05,45,985.74
2017,02,16,05,46,985.78
2017,02,16,05,47,985.74
2017,02,16,05,48,985.68
2017,02,16,05,49,985.74
2017,02,16,05,50,985.88
2017,02,16,05,51,985.85
2017,02,16,05,52,985.85
2017,02,16,05,53,985.88
2017,02,16,05,54,985.85
2017,02,16,05,55,985.88
2017,02,16,05,56,985.88
2017,02,16,05,57,985.85
2017,02,16,05,58,985.85
2017,02,16,05,59,985.85
2017,02,16,06,00,985.95
2017,02,16,06,01,985.98
2017,02,16,06,02,986.12
2017,02,16,06,03,986.12
2017,02,16,06,04,986.15
2017,02,16,06,05,986.15
2017,02,16,06,06,986.08
2017,02,16,06,07,986.05
2017,02,16,06,08,986.18
2017,02,16,06,09,986.15
2017,02,16,06,10,986.09
2017,02,16,06,11,986.29
2017,02,16,06,12,986.39
2017,02,16,06,13,986.25
2017,02,16,06,14,986.25
2017,02,16,06,15,986.29
2017,02,16,06,16,986.32
2017,02,16,06,17,986.35
2017,02,16,06,18,986.35
2017,02,16,06,19,986.46
2017,02,16,06,20,986.46
2017,02,16,06,21,986.56
2017,02,16,06,22,986.66
2017,02,16,06,23,986.52
2017,02,16,06,24,986.69
2017,02,16,06,25,986.69
2017,02,16,06,26,986.76
2017,02,16,06,27,986.76
2017,02,16,06,28,986.79
2017,02,16,06,29,986.86
2017,02,16,06,30,986.90
2017,02,16,06,31,986.96
2017,02,16,06,32,986.96
2017,02,16,06,33,987.00
2017,02,16,06,34,987.00
2017,02,16,06,35,987.03
2017,02,16,06,36,987.06
2017,02,16,06,37,987.03
2017,02,16,06,38,987.10
2017,02,16,06,39,987.10
2017,02,16,06,40,987.17
2017,02,16,06,41,987.10
2017,02,16,06,42,987.20
2017,02,16,06,43,987.13
2017,02,16,06,44,987.20
2017,02,16,06,45,987.27
2017,02,16,06,46,987.30
2017,02,16,06,47,987.34
2017,02,16,06,48,987.44
2017,02,16,06,49,987.40
2017,02,16,06,50,987.37
2017,02,16,06,51,987.47
2017,02,16,06,52,987.51
2017,02,16,06,53,987.52
2017,02,16,06,54,987.64
2017,02,16,06,55,987.67
2017,02,16,06,56,987.67
2017,02,16,06,57,987.71
2017,02,16,06,58,987.71
2017,02,16,06,59,987.67
2017,02,16,07,00,987.67
2017,02,16,07,01,987.72
2017,02,16,07,02,987.84
2017,02,16,07,03,987.81
2017,02,16,07,04,987.91
2017,02,16,07,05,987.88
2017,02,16,07,06,987.84
2017,02,16,07,07,987.84
2017,02,16,07,08,987.98
2017,02,16,07,09,987.95
2017,02,16,07,10,987.98
2017,02,16,07,11,987.88
2017,02,16,07,12,987.98
2017,02,16,07,13,987.98
2017,02,16,07,14,987.95
2017,02,16,07,15,987.98
2017,02,16,07,16,988.05
2017,02,16,07,17,988.08
2017,02,16,07,18,988.15
2017,02,16,07,19,988.11
2017,02,16,07,20,988.11
2017,02,16,07,21,988.18
2017,02,16,07,22,988.15
2017,02,16,07,23,988.11
2017,02,16,07,24,988.18
2017,02,16,07,25,988.25
2017,02,16,07,26,988.25
2017,02,16,07,27,988.25
2017,02,16,07,28,988.32
2017,02,16,07,29,988.32
2017,02,16,07,30,988.39
2017,02,16,07,31,988.39
2017,02,16,07,32,988.49
2017,02,16,07,33,988.52
2017,02,16,07,34,988.45
2017,02,16,07,35,988.45
2017,02,16,07,36,988.52
2017,02,16,07,37,988.55
2017,02,16,07,38,988.59
2017,02,16,07,39,988.52
2017,02,16,07,40,988.52
2017,02,16,07,41,988.52
2017,02,16,07,42,988.55
2017,02,16,07,43,988.55
2017,02,16,07,44,988.59
2017,02,16,07,45,988.62
2017,02,16,07,46,988.59
2017,02,16,07,47,988.62
2017,02,16,07,48,988.55
2017,02,16,07,49,988.66
2017,02,16,07,50,988.76
2017,02,16,07,51,988.62
2017,02,16,07,52,988.59
2017,02,16,07,53,988.66
2017,02,16,07,54,988.69
2017,02,16,07,55,988.69
2017,02,16,07,56,988.69
2017,02,16,07,57,988.62
2017,02,16,07,58,988.66
2017,02,16,07,59,988.69
2017,02,16,08,00,988.72
2017,02,16,08,01,988.69
2017,02,16,08,02,988.79
2017,02,16,08,03,988.93
2017,02,16,08,04,988.93
2017,02,16,08,05,988.86
2017,02,16,08,06,989.00
2017,02,16,08,07,989.00
2017,02,16,08,08,989.00
2017,02,16,08,09,989.10
2017,02,16,08,10,989.16
2017,02,16,08,11,989.20
2017,02,16,08,12,989.23
2017,02,16,08,13,989.44
2017,02,16,08,14,989.40
2017,02,16,08,15,989.44
2017,02,16,08,16,989.47
2017,02,16,08,17,989.54
2017,02,16,08,18,989.54
2017,02,16,08,19,989.57
2017,02,16,08,20,989.50
2017,02,16,08,21,989.64
2017,02,16,08,22,989.64
2017,02,16,08,23,989.64
2017,02,16,08,24,989.71
2017,02,16,08,25,989.67
2017,02,16,08,26,989.71
2017,02,16,08,27,989.71
2017,02,16,08,28,989.71
2017,02,16,08,29,989.71
2017,02,16,08,30,989.77
2017,02,16,08,31,989.77
2017,02,16,08,32,989.77
2017,02,16,08,33,989.81
2017,02,16,08,34,989.84
2017,02,16,08,35,989.91
2017,02,16,08,36,989.91
2017,02,16,08,37,989.98
2017,02,16,08,38,990.01
2017,02,16,08,39,990.04
2017,02,16,08,40,989.98
2017,02,16,08,41,990.11
2017,02,16,08,42,990.15
2017,02,16,08,43,990.15
2017,02,16,08,44,990.15
2017,02,16,08,45,990.15
2017,02,16,08,46,990.15
2017,02,16,08,47,990.15
2017,02,16,08,48,990.21
2017,02,16,08,49,990.25
2017,02,16,08,50,990.25
2017,02,16,08,51,990.21
2017,02,16,08,52,990.25
2017,02,16,08,53,990.25
2017,02,16,08,54,990.28
2017,02,16,08,55,990.28
2017,02,16,08,56,990.28
2017,02,16,08,57,990.32
2017,02,16,08,58,990.32
2017,02,16,08,59,990.25
2017,02,16,09,00,990.35
2017,02,16,09,01,990.42
2017,02,16,09,02,990.45
2017,02,16,09,03,990.49
2017,02,16,09,04,990.52
2017,02,16,09,05,990.52
2017,02,16,09,06,990.49
2017,02,16,09,07,990.55
2017,02,16,09,08,990.59
2017,02,16,09,09,990.59
2017,02,16,09,10,990.62
2017,02,16,09,11,990.69
2017,02,16,09,12,990.69
2017,02,16,09,13,990.69
2017,02,16,09,14,990.76
2017,02,16,09,15,990.76
2017,02,16,09,16,990.79
2017,02,16,09,17,990.82
2017,02,16,09,18,990.82
2017,02,16,09,19,990.82
2017,02,16,09,20,990.86
2017,02,16,09,21,990.86
2017,02,16,09,22,990.93
2017,02,16,09,23,990.96
2017,02,16,09,24,990.96
2017,02,16,09,25,991.03
2017,02,16,09,26,991.03
2017,02,16,09,27,991.06
2017,02,16,09,28,991.06
2017,02,16,09,29,991.13
2017,02,16,09,30,991.20
2017,02,16,09,31,991.23
2017,02,16,09,32,991.23
2017,02,16,09,33,991.26
2017,02,16,09,34,991.26
2017,02,16,09,35,991.26
2017,02,16,09,36,991.33
2017,02,16,09,37,991.37
2017,02,16,09,38,991.37
2017,02,16,09,39,991.33
2017,02,16,09,40,991.37
2017,02,16,09,41,991.40
2017,02,16,09,42,991.43
2017,02,16,09,43,991.47
2017,02,16,09,44,991.47
2017,02,16,09,45,991.47
2017,02,16,09,46,991.47
2017,02,16,09,47,991.53
2017,02,16,09,48,991.57
2017,02,16,09,49,991.60
2017,02,16,09,50,991.64
2017,02,16,09,51,991.64
2017,02,16,09,52,991.64
2017,02,16,09,53,991.64
2017,02,16,09,54,991.70
2017,02,16,09,55,991.70
2017,02,16,09,56,991.67
2017,02,16,09,57,991.70
2017,02,16,09,58,991.77
2017,02,16,09,59,991.77
2017,02,16,10,00,991.84
2017,02,16,10,01,991.84
2017,02,16,10,02,991.84
2017,02,16,10,03,991.91
2017,02,16,10,04,991.91
2017,02,16,10,05,991.84
2017,02,16,10,06,991.87
2017,02,16,10,07,991.91
2017,02,16,10,08,992.01
2017,02,16,10,09,992.04
2017,02,16,10,10,991.98
2017,02,16,10,11,992.01
2017,02,16,10,12,992.04
2017,02,16,10,13,992.11
2017,02,16,10,14,992.18
2017,02,16,10,15,992.18
2017,02,16,10,16,992.21
2017,02,16,10,17,992.18
2017,02,16,10,18,992.21
2017,02,16,10,19,992.25
2017,02,16,10,20,992.25
2017,02,16,10,21,992.25
2017,02,16,10,22,992.28
2017,02,16,10,23,992.35
2017,02,16,10,24,992.35
2017,02,16,10,25,992.38
2017,02,16,10,26,992.38
2017,02,16,10,27,992.38
2017,02,16,10,28,992.42
2017,02,16,10,29,992.45
2017,02,16,10,30,992.55
2017,02,16,10,31,992.55
2017,02,16,10,32,992.58
2017,02,16,10,33,992.62
2017,02,16,10,34,992.62
2017,02,16,10,35,992.62
2017,02,16,10,36,992.69
2017,02,16,10,37,992.65
2017,02,16,10,38,992.72
2017,02,16,10,39,992.79
2017,02,16,10,40,992.79
2017,02,16,10,41,992.79
2017,02,16,10,42,992.86
2017,02,16,10,43,992.92
2017,02,16,10,44,992.96
2017,02,16,10,45,992.99
2017,02,16,10,46,993.06
2017,02,16,10,47,993.06
2017,02,16,10,48,993.09
2017,02,16,10,49,993.16
2017,02,16,10,50,993.19
2017,02,16,10,51,993.23
2017,02,16,10,52,993.26
2017,02,16,10,53,993.26
2017,02,16,10,54,993.30
2017,02,16,10,55,993.33
2017,02,16,10,56,993.43
2017,02,16,10,57,993.47
2017,02,16,10,58,993.43
2017,02,16,10,59,993.47
2017,02,16,11,00,993.50
2017,02,16,11,01,993.53
2017,02,16,11,02,993.57
2017,02,16,11,03,993.60
2017,02,16,11,04,993.63
2017,02,16,11,05,993.63
2017,02,16,11,06,993.63
2017,02,16,11,07,993.67
2017,02,16,11,08,993.74
2017,02,16,11,09,993.74
2017,02,16,11,10,993.80
2017,02,16,11,11,993.80
2017,02,16,11,12,993.84
2017,02,16,11,13,993.84
2017,02,16,11,14,993.80
2017,02,16,11,15,993.84
2017,02,16,11,16,993.84
2017,02,16,11,17,993.94
2017,02,16,11,18,994.01
2017,02,16,11,19,994.01
2017,02,16,11,20,994.04
2017,02,16,11,21,994.04
2017,02,16,11,22,994.04
2017,02,16,11,23,994.04
2017,02,16,11,24,994.11
2017,02,16,11,25,994.14
2017,02,16,11,26,994.18
2017,02,16,11,27,994.18
2017,02,16,11,28,994.14
2017,02,16,11,29,994.21
2017,02,16,11,30,994.24
2017,02,16,11,31,994.28
2017,02,16,11,32,994.31
2017,02,16,11,33,994.35
2017,02,16,11,34,994.38
2017,02,16,11,35,994.41
2017,02,16,11,36,994.38
2017,02,16,11,37,994.45
2017,02,16,11,38,994.45
2017,02,16,11,39,994.45
2017,02,16,11,40,994.41
2017,02,16,11,41,994.45
2017,02,16,11,42,994.48
2017,02,16,11,43,994.48
2017,02,16,11,44,994.48
2017,02,16,11,45,994.52
2017,02,16,11,46,994.55
2017,02,16,11,47,994.55
2017,02,16,11,48,994.58
2017,02,16,11,49,994.58
2017,02,16,11,50,994.58
2017,02,16,11,51,994.62
2017,02,16,11,52,994.68
2017,02,16,11,53,994.68
2017,02,16,11,54,994.75
2017,02,16,11,55,994.72
2017,02,16,11,56,994.79
2017,02,16,11,57,994.79
2017,02,16,11,58,994.75
2017,02,16,11,59,994.79
2017,02,16,12,00,994.79
2017,02,16,12,01,994.85
2017,02,16,12,02,994.82
2017,02,16,12,03,994.85
2017,02,16,12,04,994.85
2017,02,16,12,05,994.89
2017,02,16,12,06,994.85
2017,02,16,12,07,994.92
2017,02,16,12,08,994.92
2017,02,16,12,09,994.99
2017,02,16,12,10,994.96
2017,02,16,12,11,994.96
2017,02,16,12,12,994.99
2017,02,16,12,13,994.99
2017,02,16,12,14,994.99
2017,02,16,12,15,994.99
2017,02,16,12,16,995.02
2017,02,16,12,17,994.99
2017,02,16,12,18,994.99
2017,02,16,12,19,994.99
2017,02,16,12,20,994.99
2017,02,16,12,21,994.99
2017,02,16,12,22,994.99
2017,02,16,12,23,994.96
2017,02,16,12,24,994.99
2017,02,16,12,25,995.02
2017,02,16,12,26,994.99
2017,02,16,12,27,994.99
2017,02,16,12,28,995.02
2017,02,16,12,29,995.02
2017,02,16,12,30,995.02
2017,02,16,12,31,994.96
2017,02,16,12,32,994.96
2017,02,16,12,33,994.96
2017,02,16,12,34,994.99
2017,02,16,12,35,994.99
2017,02,16,12,36,995.02
2017,02,16,12,37,995.06
2017,02,16,12,38,995.06
2017,02,16,12,39,995.06
2017,02,16,12,40,995.06
2017,02,16,12,41,995.09
2017,02,16,12,42,995.06
2017,02,16,12,43,995.09
2017,02,16,12,44,995.06
2017,02,16,12,45,995.09
2017,02,16,12,46,995.09
2017,02,16,12,47,995.16
2017,02,16,12,48,995.16
2017,02,16,12,49,995.16
2017,02,16,12,50,995.19
2017,02,16,12,51,995.16
2017,02,16,12,52,995.16
2017,02,16,12,53,995.19
2017,02,16,12,54,995.19
2017,02,16,12,55,995.23
2017,02,16,12,56,995.26
2017,02,16,12,57,995.23
2017,02,16,12,58,995.29
2017,02,16,12,59,995.26
2017,02,16,13,00,995.36
2017,02,16,13,01,995.29
2017,02,16,13,02,995.33
2017,02,16,13,03,995.36
2017,02,16,13,04,995.36
2017,02,16,13,05,995.40
2017,02,16,13,06,995.40
2017,02,16,13,07,995.40
2017,02,16,13,08,995.40
2017,02,16,13,09,995.36
2017,02,16,13,10,995.36
2017,02,16,13,11,995.36
2017,02,16,13,12,995.36
2017,02,16,13,13,995.36
2017,02,16,13,14,995.40
2017,02,16,13,15,995.40
2017,02,16,13,16,995.40
2017,02,16,13,17,995.43
2017,02,16,13,18,995.36
2017,02,16,13,19,995.43
2017,02,16,13,20,995.43
2017,02,16,13,21,995.43
2017,02,16,13,22,995.43
2017,02,16,13,23,995.50
2017,02,16,13,24,995.43
2017,02,16,13,25,995.46
2017,02,16,13,26,995.50
2017,02,16,13,27,995.50
2017,02,16,13,28,995.50
2017,02,16,13,29,995.53
2017,02,16,13,30,995.53
2017,02,16,13,31,995.53
2017,02,16,13,32,995.53
2017,02,16,13,33,995.50
2017,02,16,13,34,995.53
2017,02,16,13,35,995.53
2017,02,16,13,36,995.56
2017,02,16,13,37,995.53
2017,02,16,13,38,995.60
2017,02,16,13,39,995.56
2017,02,16,13,40,995.60
2017,02,16,13,41,995.60
2017,02,16,13,42,995.63
2017,02,16,13,43,995.60
2017,02,16,13,44,995.63
2017,02,16,13,45,995.63
2017,02,16,13,46,995.67
2017,02,16,13,47,995.67
2017,02,16,13,48,995.70
2017,02,16,13,49,995.73
2017,02,16,13,50,995.77
2017,02,16,13,51,995.73
2017,02,16,13,52,995.77
2017,02,16,13,53,995.77
2017,02,16,13,54,995.77
2017,02,16,13,55,995.73
2017,02,16,13,56,995.80
2017,02,16,13,57,995.84
2017,02,16,13,58,995.80
2017,02,16,13,59,995.84
2017,02,16,14,00,995.84
2017,02,16,14,01,995.87
2017,02,16,14,02,995.90
2017,02,16,14,03,995.90
2017,02,16,14,04,995.90
2017,02,16,14,05,995.94
2017,02,16,14,06,995.90
2017,02,16,14,07,995.94
2017,02,16,14,08,995.94
2017,02,16,14,09,995.94
2017,02,16,14,10,995.97
2017,02,16,14,11,996.01
2017,02,16,14,12,996.04
2017,02,16,14,13,996.07
2017,02,16,14,14,996.07
2017,02,16,14,15,996.07
2017,02,16,14,16,996.07
2017,02,16,14,17,996.07
2017,02,16,14,18,996.11
2017,02,16,14,19,996.11
2017,02,16,14,20,996.14
2017,02,16,14,21,996.17
2017,02,16,14,22,996.21
2017,02,16,14,23,996.21
2017,02,16,14,24,996.21
2017,02,16,14,25,996.21
2017,02,16,14,26,996.21
2017,02,16,14,27,996.21
2017,02,16,14,28,996.24
2017,02,16,14,29,996.31
2017,02,16,14,30,996.28
2017,02,16,14,31,996.31
2017,02,16,14,32,996.34
2017,02,16,14,33,996.31
2017,02,16,14,34,996.31
2017,02,16,14,35,996.34
2017,02,16,14,36,996.34
2017,02,16,14,37,996.38
2017,02,16,14,38,996.34
2017,02,16,14,39,996.41
2017,02,16,14,40,996.34
2017,02,16,14,41,996.41
2017,02,16,14,42,996.41
2017,02,16,14,43,996.41
2017,02,16,14,44,996.45
2017,02,16,14,45,996.45
2017,02,16,14,46,996.45
2017,02,16,14,47,996.48
2017,02,16,14,48,996.51
2017,02,16,14,49,996.55
2017,02,16,14,50,996.58
2017,02,16,14,51,996.55
2017,02,16,14,52,996.61
2017,02,16,14,53,996.58
2017,02,16,14,54,996.61
2017,02,16,14,55,996.61
2017,02,16,14,56,996.61
2017,02,16,14,57,996.65
2017,02,16,14,58,996.68
2017,02,16,14,59,996.65
2017,02,16,15,00,996.68
2017,02,16,15,01,996.68
2017,02,16,15,02,996.72
2017,02,16,15,03,996.68
2017,02,16,15,04,996.72
2017,02,16,15,05,996.72
2017,02,16,15,06,996.72
2017,02,16,15,07,996.78
2017,02,16,15,08,996.75
2017,02,16,15,09,996.82
2017,02,16,15,10,996.82
2017,02,16,15,11,996.78
2017,02,16,15,12,996.78
2017,02,16,15,13,996.85
2017,02,16,15,14,996.82
2017,02,16,15,15,996.85
2017,02,16,15,16,996.82
2017,02,16,15,17,996.85
2017,02,16,15,18,996.89
2017,02,16,15,19,996.92
2017,02,16,15,20,996.92
2017,02,16,15,21,996.95
2017,02,16,15,22,997.02
2017,02,16,15,23,997.02
2017,02,16,15,24,997.02
2017,02,16,15,25,997.02
2017,02,16,15,26,997.05
2017,02,16,15,27,997.09
2017,02,16,15,28,997.09
2017,02,16,15,29,997.09
2017,02,16,15,30,997.16
2017,02,16,15,31,997.12
2017,02,16,15,32,997.19
2017,02,16,15,33,997.16
2017,02,16,15,34,997.19
2017,02,16,15,35,997.19
2017,02,16,15,36,997.26
2017,02,16,15,37,997.26
2017,02,16,15,38,997.29
2017,02,16,15,39,997.29
2017,02,16,15,40,997.36
2017,02,16,15,41,997.39
2017,02,16,15,42,997.39
2017,02,16,15,43,997.36
2017,02,16,15,44,997.39
2017,02,16,15,45,997.39
2017,02,16,15,46,997.39
2017,02,16,15,47,997.46
2017,02,16,15,48,997.43
2017,02,16,15,49,997.46
2017,02,16,15,50,997.46
2017,02,16,15,51,997.43
2017,02,16,15,52,997.43
2017,02,16,15,53,997.46
2017,02,16,15,54,997.50
2017,02,16,15,55,997.53
2017,02,16,15,56,997.50
2017,02,16,15,57,997.53
2017,02,16,15,58,997.56
2017,02,16,15,59,997.60
2017,02,16,16,00,997.60
2017,02,16,16,01,997.60
2017,02,16,16,02,997.63
2017,02,16,16,03,997.63
2017,02,16,16,04,997.66
2017,02,16,16,05,997.73
2017,02,16,16,06,997.73
2017,02,16,16,07,997.77
2017,02,16,16,08,997.77
2017,02,16,16,09,997.77
2017,02,16,16,10,997.73
2017,02,16,16,11,997.77
2017,02,16,16,12,997.80
2017,02,16,16,13,997.80
2017,02,16,16,14,997.83
2017,02,16,16,15,997.83
2017,02,16,16,16,997.87
2017,02,16,16,17,997.94
2017,02,16,16,18,997.90
2017,02,16,16,19,997.90
2017,02,16,16,20,997.94
2017,02,16,16,21,997.97
2017,02,16,16,22,997.97
2017,02,16,16,23,997.94
2017,02,16,16,24,997.97
2017,02,16,16,25,998.00
2017,02,16,16,26,998.00
2017,02,16,16,27,998.04
2017,02,16,16,28,998.04
2017,02,16,16,29,998.07
2017,02,16,16,30,998.07
2017,02,16,16,31,998.07
2017,02,16,16,32,998.10
2017,02,16,16,33,998.10
2017,02,16,16,34,998.07
2017,02,16,16,35,998.14
2017,02,16,16,36,998.17